Regional Weather Roundup
Issued by NWS Newport/Morehead, NC

Current Version | Previous Version | Text Only | Print | Product List | Glossary On
Versions: 1 2 3 4 5 6 7 8 9 10 11 12 13 14 15 16 17 18 19 20 21 22 23 24 25 26 27 28 29 30 31 32 33 34 35 36 37 38 39 40 41 42 43 44 45 46 47 48 49 50
000 ASUS42 KMHX 260510 RWRMHX WEATHER ROUNDUP FOR EASTERN NORTH CAROLINA NATIONAL WEATHER SERVICE NEWPORT/MOREHEAD CITY NC 1200 AM EST WED NOV 26 2014 NOTE: "FAIR" INDICATES FEW OR NO CLOUDS BELOW 12,000 FEET WITH NO SIGNIFICANT WEATHER AND/OR OBSTRUCTIONS TO VISIBILITY NCZ015>017-031-032-045>047-102-103-260600- NORTH COAST CITY SKY/WX TMP DP RH WIND PRES REMARKS EDENTON DRIZZLE 53 53 99 NE8 30.05F ELIZABETH CITY LGT RAIN 58 54 86 N3 30.08F FOG KITTY HAWK DRIZZLE 58 58 99 NE3 30.05S MANTEO CLOUDY 58 57 99 N7 30.06S $$ NCZ045>047-081-094-103-104-260600- CENTRAL COAST CITY SKY/WX TMP DP RH WIND PRES REMARKS FRISCO RAIN 57 57 100 N6 30.05F FOG SWANQUARTER N/A 57 N/A N/A NE6G13 30.00S $$ NCZ095-097-098-100-101-260600- SOUTHERN COAST CITY SKY/WX TMP DP RH WIND PRES REMARKS BEAUFORT LGT RAIN 61 61 100 E10 30.00F FOG CEDAR ISLAND N/A 55 N/A N/A NE7G14 30.09S JACKSONVILLE RAIN 62 61 96 E9 29.96F FOG PINEY ISLAND RAIN 61 58 90 NE9 30.02F FOG WILMINGTON LGT RAIN 63 62 97 E7 29.95F $$ NCZ011>013-027>030-043-044-078>080-089-090>093-098-260600- COASTAL PLAIN CITY SKY/WX TMP DP RH WIND PRES REMARKS AHOSKIE RAIN 49 48 97 NE5 30.08F CLINTON RAIN 54 54 100 NE5 29.97F ELIZABETHTOWN DRIZZLE 55 55 100 CALM 29.96F GOLDSBORO CLOUDY 54 54 100 NE3 29.98F GREENVILLE RAIN 55 55 100 NE5 30.03F HAVELOCK LGT RAIN 62 60 93 NE7 30.01F FOG KENANSVILLE LGT RAIN 54 53 97 CALM 29.99F KINSTON HVY RAIN 55 55 99 NE5 30.02S NEW BERN LGT RAIN 61 58 90 E6 30.01F RICHLANDS CLOUDY 57 54 88 NE9 29.98F ROCKY MOUNT LGT RAIN 52 51 97 N10 30.02F FOG WASHINGTON CLOUDY 55 54 97 NE5 30.02F WHITEVILLE RAIN 57 57 100 NE5 29.94F $$ AMZ130-135-150-152-154-156-158-170-250-252-270-ANZ085-086-088-633-658-670-260600- MARINE OBSERVATIONS STATION/POSITION TIME TEMP WIND PRES WAVE SWELL AIR SEA DIR/SP/G HT/PER HT/PER (UTC) (F) (DEG/KT/KT) (MB) (FT/S) (FT/S) CHESAPEAKE LIGHT 0400 55 40/ 13/ 14 1020.5 64 E VA BEACH 0500 62 65 20/ 10/ 12 1017.9 5/ 8 5/ 8 DUCK 0500 58 58 30/ 11/ 12 1017.2 2 E DUCK 0500 58 N/A 3/ 9 10 NE DUCK 0500 59 N/A 4/ 8 2/11 OREGON INLET 0500 60 58 20/ 8/ 10 1017.6 13E OREGON INLT 0500 64 N/A 4/ 9 2/11 HATTERAS CG 0500 57 62 10/ 10/ 11 1017.9 DIAMOND BUOY 0500 69 140/ 12/ 14 1016.7 5/ 8 5/ 8 17 S OCRACOKE NOT AVBL CAPE LOOKOUT 0400 61 30/ 7/ 8 1017.3 BEAUFORT LAB 0500 61 59 30/ 6/ 10 1015.5 30 SE NEW RIVER 0500 66 68 60/ 14/ 16 1015.6 4/ 9 3/ 9 5 SE WRIGHTSVLE 0400 58 59 90/ 12/ 14 1015.0 225 S CAPE HAT 0445 75 74 180/ 17/ 19 1017.5 6/ 7 3/ 9 41 SE CHARLESTON 0500 73 75 130/ 25/ 31 1010.1 6/ 9 3/ 9 $$

USA.gov is the U.S. government's official web portal to all federal, state and local government web resources and services.